Regional Weather Roundup
Issued by NWS

Home | Current Version | Previous Version | Text Only | Print | Product List | Glossary On
Versions: 1 2 3 4 5 6 7 8 9 10 11 12 13 14 15 16 17 18 19 20 21 22 23 24 25 26 27 28 29 30 31 32 33 34 35 36 37 38 39 40 41 42 43 44 45 46 47 48 49 50
000
ASUS45 KREV 210710
RWRNV
NEVADA REGIONAL WEATHER ROUNDUP
NATIONAL WEATHER SERVICE RENO NV
1100 PM PST SAT DEC 20 2014

NOTE: "FAIR" INDICATES FEW OR NO CLOUDS BELOW 12,000 FEET WITH NO
SIGNIFICANT WEATHER AND/OR OBSTRUCTIONS TO VISIBILITY.

NVZ001-003-004-210800-
WESTERN NEVADA

CITY           SKY/WX    TMP DP  RH WIND       PRES   REMARKS
RENO           MOCLDY    51  37  58 NW14      30.15F
CARSON CITY    FAIR      50  36  57 SW8G17    30.17R
MINDEN         MOCLDY    52  37  58 N7G20     30.20
SLIDE MTN        N/A     32  32 100 NW13        N/A
PYRAMID LAKE     N/A     50 N/A N/A NW1         N/A
FALLON         CLOUDY    45  38  76 SE12      30.16S
LOVELOCK       CLOUDY    41  38  89 CALM      30.14F
HAWTHORNE      PTCLDY    41  34  75 CALM      30.20R
$$

NVZ002-CAZ072-073-210800-
NORTHERN AND CENTRAL SIERRA

CITY           SKY/WX    TMP DP  RH WIND       PRES   REMARKS
S. LAKE TAHOE  CLOUDY    43  35  73 S13       30.26R
TRUCKEE        CLOUDY    36  34  93 CALM      30.24R
SQUAW VLY 8000   N/A     32  32 100 VRB26       N/A
SUSANVILLE     MOCLDY    45  37  76 NW12G18   30.14
BLUE CANYON    FOG       40  38  93 SE6       30.28R VSB 3/4
MAMMOTH LAKES  FAIR      39  32  75 NW3       30.27R
BRIDGEPORT     CLOUDY    44  32  62 VRB5      30.23S
$$

NVZ030-031-036-210800-
NORTHERN NEVADA

CITY           SKY/WX    TMP DP  RH WIND       PRES   REMARKS
ELKO           MIX PCPN  37  34  89 SW10      30.09S
WINNEMUCCA     CLOUDY    43  37  79 S15       30.10S
WENDOVER       CLOUDY    34  27  75 CALM      30.04S
$$

NVZ035-037-210800-
CENTRAL NEVADA

CITY           SKY/WX    TMP DP  RH WIND       PRES   REMARKS
ELY            LGT RAIN  34  31  88 N3        30.16S
EUREKA           N/A     39  34  82 VRB5      30.16S
$$

NVZ013-014-210800-
SOUTH CENTRAL NEVADA

CITY           SKY/WX    TMP DP  RH WIND       PRES   REMARKS
TONOPAH        PTCLDY    30  28  92 NW5       30.21R
$$

NVZ017-020-022-210800-
SOUTHERN NEVADA

CITY           SKY/WX    TMP DP  RH WIND       PRES   REMARKS
LAS VEGAS      PTCLDY    47  37  68 SW3       30.13R
N. LAS VEGAS   CLEAR     46  36  68 VRB5      30.16R
NELLIS AFB     CLEAR     42  38  84 NE2       30.17R
HENDERSON      CLEAR     43  37  79 SW8       30.18S
MERCURY        CLEAR     35  33  92 CALM      30.19R
$$


USA.gov is the U.S. government's official web portal to all federal, state and local government web resources and services.